Flag for Brazil Weather past 2 weeks in Maceió, Alagoas, Brazil

Now
77 °F

Clear.


Feels Like: 79 °F
Forecast: N/A
Wind: 7 mph from Southeast

Location: Maceio Aeroporto

Current Time: Feb 1, 2015 at 7:48:59 PM

Latest Report: Feb 1, 2015 at 7:00 PM


Visibility: 10 mi

Pressure: 29.95 "Hg

Humidity: 79%

Dew point: 70 °F

Location of MaceióLocation

Historic Weather in Maceió — Graph

°F

Maceió temperature yesterday

Maximum temperature yesterday: 90 °F (at 1:00 PM)
Minimum temperature yesterday: 72 °F (at 2:00 AM)
Average temperature yesterday: 79 °F

Past Weeks' High & Low Weather Summary

 TemperatureHumidityPressure
High90 °F (Jan 22, 12:00 PM)100% (Jan 20, 5:00 AM)30.04 "Hg (Jan 20, 5:00 AM)
Low68 °F (Jan 26, 4:00 AM)40% (Jan 26, 1:00 PM)29.86 "Hg (Jan 20, 3:00 PM)
Average78 °F78%29.95 "Hg
* Reported Jan 17 7:00 PM — Feb 1 7:00 PM, Maceió, Weather by CustomWeather, © 2014

Note: Actual official high and low records may vary slightly from our data, if they occured in-between our weather recording intervals... More about our weather records

Advertising

Maceió weather history for previous 24 hours

 ConditionsComfort  
Time TempWeatherWind HumidityBarometerVisibility
7:00 PM
Feb 1
77 °FClear.7 mph79%29.95 "Hg10 mi
6:00 PM81 °FClear.10 mph70%29.92 "Hg10 mi
5:00 PM82 °FSunny.12 mph58%29.92 "Hg10 mi
4:00 PM86 °FPassing clouds.15 mph49%29.92 "HgN/A
3:00 PM86 °FPassing clouds.15 mph52%29.92 "HgN/A
2:00 PM88 °FScattered clouds.16 mph40%29.92 "HgN/A
1:00 PM88 °FScattered clouds.16 mph49%29.95 "HgN/A
12:00 PM88 °FScattered clouds.14 mph49%29.98 "HgN/A
11:00 AM86 °FScattered clouds.15 mph55%29.98 "HgN/A
10:00 AM84 °FScattered clouds.14 mph62%29.98 "HgN/A
9:00 AM84 °FScattered clouds.14 mph62%29.98 "HgN/A
8:00 AM79 °FScattered clouds.6 mph84%29.98 "HgN/A
7:00 AM75 °FScattered clouds.3 mph94%29.95 "HgN/A
6:00 AM72 °FPassing clouds.No wind100%29.95 "HgN/A
5:00 AM73 °FPassing clouds.2 mph94%29.92 "HgN/A
4:00 AM73 °FPassing clouds.2 mph94%29.92 "HgN/A
3:00 AM73 °FPassing clouds.2 mph94%29.92 "HgN/A
2:00 AM73 °FPassing clouds.2 mph94%29.92 "HgN/A
1:00 AM73 °FPassing clouds.2 mph94%29.95 "HgN/A
12:00 AM73 °FPassing clouds.2 mph94%29.95 "HgN/A
11:00 PM
Jan 31
73 °FPassing clouds.2 mph94%29.98 "HgN/A
10:00 PM73 °FPassing clouds.5 mph94%29.98 "HgN/A
9:00 PM75 °FClear.3 mph89%29.95 "Hg10 mi
8:00 PM75 °FClear.5 mph89%29.95 "Hg10 mi
7:00 PM77 °FClear.6 mph83%29.92 "Hg10 mi
Weather by CustomWeather, © 2014

See weather overviewHow to use our weather pages